map of APW home
APW - Airport
Location
City:  Apia, Upolu Island, Samoa (Western Samoa)
Name:Faleolo International Airport
ICAO:NSFA
IATA:APW

Details
Type:Airport (Aerodrome, Airfield)
Use:Public/Civil, International (customs port of entry)
Latitude:1349'47"S (-13.829666)
Longitude:17159'50"W (-171.997166)
Elevation:58 ft (18 m)
Variation:11.63E (WMM2015 magnetic declination)
0.04 annual change
Runways:1
Longest:9843 × 148 ft (3000 × 45 m), paved

Time
Time Zone:UTC-11
Local Time:

Weather
METAR:NSFA 270200Z 06005KT 9999 SCT022 32/25 Q1008
TAF:NSFA 262309Z 2700/2724 06008KT 9999 FEW020 SCT040 BKN100 PROB30
TEMPO 2700/2710 5000 TSRA FEW017CB

Related Locations
Nearby:
Farthest:DRRA: 12449 mi / 20034 km
Tessaoua [Tessaoua Airport], NE

Find:

   beyond  
but within

Other Information
Maps:
NOTAMs:
Links:
Sources:

  
flag of Samoa (Western Samoa)   

Sectional Chart

Flight Planning
at skyvector.com

Satellite Image

Google Maps Satellite view

 

Copyright © 2004-2017 Karl L. Swartz. All rights reserved.
The Great Circle Mapper name and logo are trademarks of the Great Circle Mapper.
All other trademarks mentioned herein belong to their respective owners.
Please see credits for attibutions and further copyright information.

  Follow gcmap on Facebook Follow gcmap on Twitter Follow gcmap on Google+ GCmap on LinkedIn

hCard Microformat

Geo Microformat